Regional Weather Roundup
Issued by NWS

Home | Current Version | Previous Version | Graphics & Text | Print | Product List | Glossary On
Versions: 1 2 3 4 5 6 7 8 9 10 11 12 13 14 15 16 17 18 19 20 21 22 23 24 25 26 27 28 29 30 31 32 33 34 35 36 37 38 39 40 41 42 43 44 45 46 47 48 49 50
000
ASUS43 KOAX 050110
RWRNE

WEATHER ROUNDUP FOR NEBRASKA
NATIONAL WEATHER SERVICE OMAHA NE
700 PM CST SUN DEC 04 2016

NOTES: SATELLITE DATA IS BEING USED TO AUGMENT CLOUD COVER ABOVE
       12000 FEET.
       "FAIR" INDICATES FEW OR NO CLOUDS BELOW 12,000 FEET WITH NO
       SIGNIFICANT WEATHER AND/OR OBSTRUCTIONS TO VISIBILITY.

  * THESE STATIONS DO NOT REPORT WEATHER SUCH AS RAIN...SNOW OR FOG.

NEZ001>004-019>022-054>056-050200-
NEBRASKA PANHANDLE

CITY           SKY/WX    TMP DP  RH WIND       PRES   REMARKS
SCOTTSBLUFF    CLEAR     41  19  41 W3        29.72F
ALLIANCE       CLEAR     31  14  49 S6        29.71F WCI  25
CHADRON        PTCLDY    38  17  42 S7        29.67F WCI  33
KIMBALL        CLOUDY    44  23  42 W13       29.73F
SIDNEY         CLEAR     29  10  45 SW12      29.76S WCI  19
$$

NEZ057>060-069>072-079>082-050200-
SOUTHWEST NEBRASKA

CITY           SKY/WX    TMP DP  RH WIND       PRES   REMARKS
NORTH PLATTE   CLEAR     35  15  44 S10       29.81F WCI  27
IMPERIAL       CLEAR     39  11  31 S13       29.80F WCI  31
LEXINGTON      CLEAR     33  19  57 S7        29.85S WCI  27
MCCOOK         CLEAR     36  14  40 S8        29.86S WCI  30
OGALLALA       CLEAR     36  11  36 CALM      29.77F
$$

NEZ005>010-023>029-035>040-094-050200-
NORTH CENTRAL NEBRASKA

CITY           SKY/WX    TMP DP  RH WIND       PRES   REMARKS
VALENTINE      CLOUDY    36  15  42 CALM      29.74F
AINSWORTH      CLEAR     29  18  63 S8        29.76F WCI  21
BROKEN BOW     CLEAR     27  17  66 CALM      29.81F
O`NEILL        CLEAR     36  23  59 SE5       29.80F WCI  32
ORD            CLEAR     29  18  63 S8        29.81F WCI  21
THEDFORD       CLEAR     37  17  44 S8        29.77F WCI  31
$$

NEZ041-046>049-061>064-073>077-083>087-050200-
SOUTH CENTRAL NEBRASKA

CITY           SKY/WX    TMP DP  RH WIND       PRES   REMARKS
GRAND ISLAND   CLEAR     36  31  82 S10       29.87F WCI  28
AURORA         CLEAR     39  32  77 S12       29.88F WCI  31
HASTINGS       CLEAR     37  31  78 S8        29.89S WCI  31
HEBRON         CLEAR     35  32  90 S8        29.92F WCI  28
HOLDREGE       CLEAR     34  19  54 SW7       29.88R WCI  28
KEARNEY *      CLEAR     34  21  60 S8        29.86F WCI  27
YORK           CLEAR     36  32  87 S10       29.89F WCI  28
$$

NEZ011>018-030>034-042>045-050200-
NORTHEAST NEBRASKA

CITY           SKY/WX    TMP DP  RH WIND       PRES   REMARKS
NORFOLK        CLEAR     33  23  66 S8        29.83S WCI  26
ALBION         CLEAR     34  24  67 SE3       29.83F
BLAIR          CLEAR     33  31  91 S8        29.89S WCI  27
FREMONT        CLEAR     33  32  96 S8        29.89S WCI  26
TEKAMAH        CLEAR     33  30  88 SE9       29.89S WCI  25
WAYNE          CLEAR     30  26  86 SW5       29.84S WCI  25
$$

NEZ050>053-065>068-078-088>093-050200-
SOUTHEAST NEBRASKA

CITY           SKY/WX    TMP DP  RH WIND       PRES   REMARKS
LINCOLN        CLEAR     32  30  92 S5        29.93S WCI  27
OMAHA EPPLEY   CLEAR     35  30  82 S9        29.92S WCI  28
BEATRICE       CLEAR     35  32  89 S6        29.93S WCI  30
FALLS CITY     CLEAR     37  34  89 S8        29.96S WCI  31
NEBRASKA CITY  CLEAR     32  32 100 S6        29.93F WCI  26
PLATTSMOUTH    CLEAR     34  29  83 SW7       29.92S WCI  28
$$

NEZ044-045-051>053-067-050200-
OMAHA AREA

CITY           SKY/WX    TMP DP  RH WIND       PRES   REMARKS
OMAHA EPPLEY   CLEAR     35  30  82 S9        29.92S WCI  28
BLAIR          CLEAR     33  31  91 S8        29.89S WCI  27
FREMONT        CLEAR     33  32  96 S8        29.89S WCI  26
MILLARD        CLEAR     34  31  90 S3        29.92S
OFFUTT AFB     CLEAR     33  33 100 S6        29.92S WCI  27
PLATTSMOUTH    CLEAR     34  29  83 SW7       29.92S WCI  28
WAHOO          FAIR      30  28  94 S8        29.90S WCI  22
$$




USA.gov is the U.S. government's official web portal to all federal, state and local government web resources and services.